Current weather by "City, St" or "zip code"  
 

Current Conditions: Johnstown - Cambria County Airport, PA

A Few Clouds


31.0 F

Last Updated on Oct 31 2020, 3:54 am EDT
Humidity: 89%
Wind Speed: NW 3.5 mph
Barometer 30.32 in
Dewpoint: 28.0 F
Visibility: 10.00 mi
Precip: --
Heat Index: NA
Wind Chill: NA
Current conditions at:

Johnstown - Cambria County Airport, PA (KJST)

Lat: 40.3149 Lon: 78.83074

Local Radar Image active severe weather and emergency alerts image image weather storm and storm spotter reports image weather observation monitoring service image
Local
Radar
Active
Alerts
Storm Reports Obs
Monitoring

Sign-up For Email & Text Message Weather Alert Notification Services



Advertise Here

Observation History for Johnstown - Cambria County Airport, PA


Time Wind
(mph)
Vis
(mi)
Weather Precip (in) Temperature (F) Relative
Humidity
Wind
Chill
(F)
Heat
Index
(F)
Pressure
Air Dwpt altimeter
(in)
sea level
(mb)
Rmks
3:54 am EDT NW 3.5 10.00 A Few Clouds -- 31.0 28.0 89% NA NA 30.32 1028.6
2:54 am EDT NW 4.6 10.00 Overcast -- 32.0 28.9 88% 27 NA 30.31 1028.3
1:54 am EDT W 3.5 10.00 Overcast -- 32.0 28.9 88% NA NA 30.31 1028.3
12:54 am EDT W 3.5 10.00 Overcast -- 32.0 28.9 88% NA NA 30.30 1027.9
11:54 pm EDT NW 8.1 10.00 Overcast -- 33.0 28.0 82% 26 NA 30.28 1027.4
10:54 pm EDT NW 6.9 10.00 Mostly Cloudy -- 33.0 28.0 82% 27 NA 30.26 1026.7
9:54 pm EDT NW 6.9 10.00 Overcast -- 34.0 28.9 82% 28 NA 30.24 1025.9
8:54 pm EDT NW 12.7 10.00 Overcast -- 35.0 28.9 78% 26 NA 30.21 1025.1
7:54 pm EDT NW 11.5 10.00 Overcast -- 35.0 30.0 82% 27 NA 30.19 1024.2
6:54 pm EDT NW 9.2 10.00 Overcast 00.01 36.0 32.0 86% 29 NA 30.15 1022.8
5:54 pm EDT NW 17.3 5.00 Light Rain Fog/Mist 00.02 38.0 34.0 86% 29 NA 30.11 1021.2
4:54 pm EDT NW 13.8 10.00 Overcast 00.01 40.0 35.1 83% 32 NA 30.08 1020.0
3:54 pm EDT NW 10.4 10.00 Overcast 00.01 40.0 36.0 86% 33 NA 30.05 1018.8
2:54 pm EDT W 9.2 2.50 Rain Fog/Mist 00.05 40.0 36.0 86% 34 NA 30.02 1017.8
1:54 pm EDT W 6.9 3.00 Light Rain Fog/Mist 00.04 40.0 37.0 89% 35 NA 30.00 1017.2
12:54 pm EDT NW 8.1 4.00 Light Rain Fog/Mist Trace 39.0 36.0 89% 33 NA 29.99 1016.8
11:54 am EDT NW 11.5 10.00 Overcast -- 39.0 35.1 86% 32 NA 29.97 1016.3
10:54 am EDT NW 9.2 10.00 Overcast -- 39.0 34.0 82% 33 NA 29.95 1015.6
9:54 am EDT N 9.2 10.00 Overcast -- 38.0 34.0 86% 32 NA 29.92 1014.6
8:54 am EDT N 10.4 10.00 Overcast -- 37.0 34.0 89% 30 NA 29.87 1012.9
7:54 am EDT N 11.5 10.00 Overcast Trace 37.0 34.0 89% 29 NA 29.83 1011.4
6:54 am EDT N 10.4 6.00 Light Rain Fog/Mist 00.01 38.0 35.1 89% 31 NA 29.80 1010.4
5:54 am EDT N 8.1 10.00 Overcast Trace 38.0 35.1 89% 32 NA 29.76 1009.0

Regional Weather Observation


Johnstown - Cambria County Airport, PA (KJST)

A Few Clouds
31.0 F

Latrobe / Westmoreland, PA (KLBE)

Fog/Mist
30.0 F

Altoona - Blair County Airport, PA (KAOO)

Overcast
37.0 F

Pittsburgh - Allegheny County Airport, PA (KAGC)

Fair
32.0 F

Butler, Butler County Airport/K W Scholter Field, PA (KBTP)

Mostly Cloudy
26.0 F

Du Bois - Jefferson County Airport, PA (KDUJ)

Overcast
34.0 F